Hourly Data Report for October 10, 2013

All times are specified in Local Standard Time (LST). Add 1 hour to adjust for Daylight Saving Time where and when it is observed.

CHARLOTTETOWN A
PRINCE EDWARD ISLAND

46°17'21.000" N
63°07'09.000" W
48.50 m
8300301
71706
YYG

Download Data

Hourly Data (October 2013)
Hourly Data Report for October 10, 2013
Temp Definition
°C
Dew Point Temp Definition
°C
Rel Hum Definition
%
Wind Dir Definition
10's deg

Wind Spd Definition
km/h
Visibility Definition
km
Stn Press Definition
kPa
Hmdx Definition


Wind Chill Definition


Weather Definition


TIME
00:00 Legend Double Dagger 9.4 7.9 90 21 10 24.1 102.01     LegendNANA
01:00 Legend Double Dagger 9.8 8.3 90 21 11 24.1 102.00     LegendNANA
02:00 Legend Double Dagger 9.2 7.8 91 20 8 24.1 101.94     Clear
03:00 Legend Double Dagger 9.3 8.1 92 21 12 24.1 101.89     LegendNANA
04:00 Legend Double Dagger 9.2 7.7 90 23 15 24.1 101.86     LegendNANA
05:00 Legend Double Dagger 9.2 7.5 89 23 10 24.1 101.82     Clear
06:00 Legend Double Dagger 9.3 7.4 88 22 15 24.1 101.77     LegendNANA
07:00 Legend Double Dagger 10.3 8.4 88 22 18 24.1 101.78     LegendNANA
08:00 Legend Double Dagger 12.0 8.9 81 23 21 24.1 101.76     Mainly Clear
09:00 Legend Double Dagger 13.7 8.0 68 24 28 24.1 101.75     LegendNANA
10:00 Legend Double Dagger 14.7 8.3 65 25 28 24.1 101.72     LegendNANA
11:00 Legend Double Dagger 15.7 8.3 61 24 26 24.1 101.70     Mainly Clear
12:00 Legend Double Dagger 17.0 8.5 57 23 22 24.1 101.62     LegendNANA
13:00 Legend Double Dagger 17.6 8.3 54 25 18 24.1 101.59     LegendNANA
14:00 Legend Double Dagger 18.1 7.6 50 24 26 24.1 101.57     Mostly Cloudy
15:00 Legend Double Dagger 18.2 7.1 48 24 23 24.1 101.51     LegendNANA
16:00 Legend Double Dagger 17.5 7.4 51 24 27 24.1 101.48     LegendNANA
17:00 Legend Double Dagger 16.1 8.4 60 24 19 24.1 101.48     Mostly Cloudy
18:00 Legend Double Dagger 14.3 8.1 66 24 16 24.1 101.52     LegendNANA
19:00 Legend Double Dagger 13.1 8.6 74 24 21 24.1 101.53     LegendNANA
20:00 Legend Double Dagger 12.3 9.0 80 24 17 24.1 101.53     Mainly Clear
21:00 Legend Double Dagger 11.9 9.8 87 24 19 24.1 101.52     LegendNANA
22:00 Legend Double Dagger 11.6 10.0 90 24 19 24.1 101.52     LegendNANA
23:00 Legend Double Dagger 11.5 9.6 88 26 17 24.1 101.46     Mainly Clear

Notes on Data Quality.

Legend

  • E = Estimated
  • M = Missing
  • NA = Not Available
  • ‡ = Partner data that is not subject to review by the National Climate Archives
Date modified: